This is the latest recevied weather packets stored in our database for station/object KM4CBK. If no packets are shown the sender has not sent any weather packets the latest 10 day(s).
| Time | Temp. | Humidity | Pressure | Rain* | Wind** | Luminosity | Snow |
|---|---|---|---|---|---|---|---|
| 1778017949 | 26.67° C | 56% | 1011.2 hPa | 0 mm | - | 110 W/m² | - |
| 1778017647 | 26.67° C | 55% | 1011.4 hPa | 0 mm | - | 91 W/m² | - |
| 1778017344 | 26.67° C | 55% | 1011.5 hPa | 0 mm | - | 64 W/m² | - |
| 1778017041 | 27.22° C | 54% | 1011.6 hPa | 0 mm | - | 72 W/m² | - |
| 1778016739 | 27.78° C | 53% | 1011.3 hPa | 0 mm | - | 98 W/m² | - |
| 1778016434 | 27.22° C | 53% | 1011.4 hPa | 0 mm | - | 191 W/m² | - |
| 1778016132 | 27.78° C | 52% | 1011.5 hPa | 0 mm | - | 102 W/m² | - |
| 1778015828 | 27.78° C | 52% | 1011.4 hPa | 0 mm | - | 214 W/m² | - |
| 1778015526 | 27.78° C | 52% | 1011.1 hPa | 0 mm | - | 256 W/m² | - |
| 1778015222 | 27.78° C | 52% | 1011 hPa | 0 mm | - | 232 W/m² | - |
| 1778014919 | 27.78° C | 52% | 1011.3 hPa | 0 mm | - | 290 W/m² | - |
| 1778014617 | 27.22° C | 51% | 1011.5 hPa | 0 mm | - | 194 W/m² | - |
| 1778014315 | 27.78° C | 48% | 1011.4 hPa | 0 mm | - | 153 W/m² | - |
| 1778014011 | 27.22° C | 48% | 1011.5 hPa | 0 mm | - | 207 W/m² | - |
| 1778013709 | 27.78° C | 49% | 1011.7 hPa | 0 mm | - | 409 W/m² | - |
| 1778013406 | 28.33° C | 49% | 1011.7 hPa | 0 mm | - | 455 W/m² | - |
| 1778013103 | 27.78° C | 48% | 1011.4 hPa | 0 mm | - | 450 W/m² | - |
| 1778012798 | 28.33° C | 48% | 1011.5 hPa | 0 mm | - | 404 W/m² | - |
| 1778012494 | 27.78° C | 47% | 1011.8 hPa | 0 mm | - | 505 W/m² | - |
| 1778012191 | 28.33° C | 46% | 1012 hPa | 0 mm | - | 542 W/m² | - |
| 1778011889 | 28.33° C | 47% | 1012 hPa | 0 mm | - | 494 W/m² | - |
| 1778011587 | 28.33° C | 46% | 1012.1 hPa | 0 mm | - | 537 W/m² | - |
| 1778011284 | 28.89° C | 47% | 1012.3 hPa | 0 mm | - | 547 W/m² | - |
| 1778010980 | 28.89° C | 45% | 1012 hPa | 0 mm | - | 467 W/m² | - |
| 1778010678 | 28.33° C | 47% | 1012.1 hPa | 0 mm | - | 577 W/m² | - |
* Rain latest hour (hover to see other rain measurements)
** Current wind speed in m/s (hover to see current wind gust speed)